Morrisville, VT

2:27 AM EDT on September 24, 2017 (GMT -0400)
Morrisville Stowe State

Weather History for KMVL - June, 2013

Change the Weather History Date:

Saturday, June 22, 2013

  Actual Average Record
Temperature  
Mean Temperature 66 °F 64 °F  
Max Temperature 76 °F 76 °F 84 °F (2012)
Min Temperature 56 °F 52 °F 45 °F (2016)
Degree Days  
Heating Degree Days 0 3  
Month to date heating degree days 130 109  
Since 1 June heating degree days 130 109  
Since 1 July heating degree days 7663 8240  
Cooling Degree Days 1 2  
Month to date cooling degree days 19 29  
Year to date cooling degree days 39 37  
Since 1 June cooling degree days 19 29  
Growing Degree Days 15 (Base 50)    
Moisture  
Dew Point 60 °F    
Average Humidity 75    
Maximum Humidity 93    
Minimum Humidity 57    
Precipitation  
Precipitation 0.70 in 0.14 in 1.40 in (2008)
Month to date precipitation 4.78 2.82  
Year to date precipitation 16.79 14.44  
Sea Level Pressure  
Sea Level Pressure 30.18 in    
Wind  
Wind Speed 1 mph (NE)    
Max Wind Speed 9 mph    
Max Gust Speed 10 mph    
Visibility 6 miles    
Events Rain    
T = Trace of Precipitation, MM = Missing Value Source: NWS Daily Summary

Daily Weather History Graph

Daily Weather History Graph

Search for Another Location

Airport or City:

Trip Planner

Search our weather history database for the weather conditions in past years. The results will help you decide how hot, cold, wet, or windy it might be!

Date:

Astronomy

Jun. 22, 2013 Rise Set
Actual Time 5:05 AM EDT 8:39 PM EDT
Civil Twilight 4:28 AM EDT 9:16 PM EDT
Nautical Twilight 3:40 AM EDT 10:04 PM EDT
Astronomical Twilight 2:36 AM EDT 11:08 PM EDT
Moon 7:48 PM EDT (6/22) 4:18 AM EDT (6/22)
Length of Visible Light 16h 47m
Length of Day
15h 33m
Waxing Gibbous, 99% of the Moon is Illuminated
Jun 22
Waxing Gibbous
Jun 23
Full
Jun 30
Last Quarter
Jul 8
New
Jul 15
First Quarter

Hourly Weather History & Observations

Time (EDT) Temp. Dew Point Humidity Pressure Visibility Wind Dir Wind Speed Gust Speed Precip Events Conditions
12:54 AM 55.9 °F 54.0 °F 93% 30.24 in 10.0 mi Calm Calm - N/A   Clear
1:54 AM 57.0 °F 54.0 °F 89% 30.23 in 10.0 mi Calm Calm - N/A   Clear
2:54 AM 55.9 °F 54.0 °F 93% 30.22 in 10.0 mi Calm Calm - N/A   Clear
3:54 AM 55.9 °F 53.1 °F 90% 30.21 in 10.0 mi Calm Calm - N/A   Scattered Clouds
4:54 AM 57.0 °F 54.0 °F 89% 30.22 in 10.0 mi Calm Calm - N/A   Mostly Cloudy
5:54 AM 57.0 °F 54.0 °F 89% 30.22 in 10.0 mi Calm Calm - N/A   Partly Cloudy
6:54 AM 57.9 °F 55.0 °F 90% 30.20 in 10.0 mi Calm Calm - N/A   Partly Cloudy
7:54 AM 60.1 °F 55.0 °F 83% 30.20 in 10.0 mi Calm Calm - N/A   Clear
8:54 AM 63.0 °F 55.9 °F 78% 30.20 in 10.0 mi Calm Calm - N/A   Clear
9:54 AM 68.0 °F 57.0 °F 68% 30.20 in 10.0 mi Calm Calm - N/A   Partly Cloudy
10:54 AM 71.1 °F 57.0 °F 61% 30.20 in 10.0 mi Calm Calm - N/A   Mostly Cloudy
11:54 AM 73.9 °F 57.9 °F 57% 30.19 in 10.0 mi Calm Calm - N/A   Mostly Cloudy
12:54 PM 75.0 °F 60.1 °F 60% 30.18 in 10.0 mi North 4.6 mph - N/A   Clear
1:54 PM 73.9 °F 59.0 °F 59% 30.16 in 10.0 mi East 4.6 mph - N/A   Clear
2:54 PM 71.1 °F 57.9 °F 63% 30.17 in 10.0 mi North 6.9 mph - N/A   Overcast
3:54 PM 66.9 °F 64.0 °F 90% 30.17 in 4.0 mi Calm Calm - 0.03 in Rain Rain
4:00 PM 66.2 °F 64.4 °F 94% 30.17 in 1.8 mi Calm Calm - 0.03 in Rain Rain
4:12 PM 66.2 °F 64.4 °F 94% 30.17 in 0.8 mi NNE 4.6 mph - 0.14 in Rain Heavy Rain
4:17 PM 66.2 °F 64.4 °F 94% 30.17 in 1.2 mi Calm Calm - 0.17 in Rain Heavy Rain
4:24 PM 66.2 °F 62.6 °F 88% 30.17 in 3.0 mi Calm Calm - 0.18 in Rain Light Rain
4:54 PM 66.0 °F 64.0 °F 93% 30.19 in 2.0 mi Calm Calm - 0.21 in Rain Light Rain
5:15 PM 64.4 °F 62.6 °F 94% 30.18 in 1.5 mi Calm Calm - 0.06 in Rain Rain
5:32 PM 64.4 °F 62.6 °F 94% 30.18 in 3.0 mi Calm Calm - 0.11 in Rain Light Rain
5:42 PM 64.4 °F 62.6 °F 94% 30.18 in 2.5 mi Calm Calm - 0.13 in Rain Rain
5:54 PM 64.9 °F 63.0 °F 93% 30.18 in 2.0 mi Calm Calm - 0.17 in Rain Rain
6:03 PM 64.4 °F 62.6 °F 94% 30.17 in 1.5 mi Calm Calm - 0.02 in Rain Rain
6:18 PM 64.4 °F 64.4 °F 100% 30.16 in 2.0 mi Calm Calm - 0.05 in Rain Light Rain
6:29 PM 64.4 °F 64.4 °F 100% 30.16 in 3.0 mi Calm Calm - 0.06 in Rain Light Rain
6:54 PM 64.9 °F 63.0 °F 93% 30.16 in 4.0 mi Calm Calm - 0.07 in Rain Light Rain
7:54 PM 64.9 °F 63.0 °F 93% 30.15 in 4.0 mi Calm Calm - 0.01 in   Overcast
8:50 PM 64.4 °F 62.6 °F 94% 30.14 in 4.0 mi Calm Calm - N/A   Overcast
8:54 PM 64.0 °F 63.0 °F 96% 30.14 in 4.0 mi Calm Calm - N/A   Overcast
9:31 PM 64.4 °F 62.6 °F 94% 30.15 in 2.5 mi Variable 3.5 mph - 0.06 in Rain Heavy Rain
9:40 PM 64.4 °F 62.6 °F 94% 30.15 in 1.5 mi Calm Calm - 0.15 in Rain Heavy Rain
9:46 PM 64.4 °F 62.6 °F 94% 30.16 in 3.0 mi Calm Calm - 0.15 in Rain Light Rain
9:54 PM 64.0 °F 63.0 °F 96% 30.15 in 6.0 mi SE 3.5 mph - 0.15 in Rain Light Rain
10:54 PM 64.0 °F 62.1 °F 93% 30.15 in 7.0 mi Calm Calm - 0.00 in   Overcast
11:47 PM 62.6 °F 62.6 °F 100% 30.13 in 2.5 mi Calm Calm - 0.06 in Rain Light Rain
11:54 PM 64.0 °F 62.1 °F 93% 30.13 in 4.0 mi Calm Calm - 0.06 in Rain Light Rain